Wetterdaten: Sonntag, 16.07.2017
Datum Zeit Temp. A. Feuchte A. Luftdruck Regen Wind Richtung Richtung Sonnenschein Helligkeit Solar
16.07.2017 00:00 19,0 C 64 % 1020,7 hPa 0,0 l/m 7,9 km/h (2 Bft) S 170 0 min 0 lux 0 W/m
16.07.2017 00:06 19,0 C 64 % 1020,7 hPa 0,0 l/m 9,2 km/h (2 Bft) S22.5 170 0 min 0 lux 0 W/m
16.07.2017 00:11 19,0 C 64 % 1020,7 hPa 0,0 l/m 8,3 km/h (2 Bft) S-SO 160 0 min 0 lux 0 W/m
16.07.2017 00:15 19,0 C 64 % 1020,7 hPa 0,0 l/m 7,9 km/h (2 Bft) S22.5 170 0 min 0 lux 0 W/m
16.07.2017 00:20 18,9 C 65 % 1020,7 hPa 0,0 l/m 6,8 km/h (2 Bft) S22.5 175 0 min 0 lux 0 W/m
16.07.2017 00:25 18,9 C 65 % 1020,7 hPa 0,0 l/m 9,7 km/h (2 Bft) S22.5 170 0 min 0 lux 0 W/m
16.07.2017 00:31 18,9 C 65 % 1020,7 hPa 0,0 l/m 8,7 km/h (2 Bft) S 175 0 min 0 lux 0 W/m
16.07.2017 00:36 18,9 C 65 % 1020,7 hPa 0,0 l/m 9,0 km/h (2 Bft) S22.5 175 0 min 0 lux 0 W/m
16.07.2017 00:40 18,9 C 64 % 1020,7 hPa 0,0 l/m 8,2 km/h (2 Bft) S22.5 175 0 min 0 lux 0 W/m
16.07.2017 00:45 18,8 C 65 % 1020,7 hPa 0,0 l/m 10,2 km/h (2 Bft) S22.5 170 0 min 0 lux 0 W/m
16.07.2017 00:50 18,8 C 64 % 1020,7 hPa 0,0 l/m 11,3 km/h (2 Bft) S22.5 170 0 min 0 lux 0 W/m
16.07.2017 00:56 18,8 C 65 % 1020,7 hPa 0,0 l/m 8,5 km/h (2 Bft) S22.5 170 0 min 0 lux 0 W/m
16.07.2017 01:01 18,8 C 65 % 1020,7 hPa 0,0 l/m 8,1 km/h (2 Bft) S-SO22.5 165 0 min 0 lux 0 W/m
16.07.2017 01:05 18,8 C 65 % 1020,7 hPa 0,0 l/m 12,3 km/h (2 Bft) S22.5 175 0 min 0 lux 0 W/m
16.07.2017 01:10 18,8 C 65 % 1020,7 hPa 0,0 l/m 10,1 km/h (2 Bft) S22.5 170 0 min 0 lux 0 W/m
16.07.2017 01:16 18,8 C 65 % 1020,7 hPa 0,0 l/m 13,0 km/h (3 Bft) S22.5 175 0 min 0 lux 0 W/m
16.07.2017 01:20 18,8 C 65 % 1020,7 hPa 0,0 l/m 13,7 km/h (3 Bft) S22.5 175 0 min 0 lux 0 W/m
16.07.2017 01:25 18,7 C 65 % 1020,7 hPa 0,0 l/m 11,8 km/h (2 Bft) S22.5 170 0 min 0 lux 0 W/m
16.07.2017 01:30 18,8 C 65 % 1020,7 hPa 0,0 l/m 11,2 km/h (2 Bft) S22.5 175 0 min 0 lux 0 W/m
16.07.2017 01:35 18,8 C 64 % 1020,7 hPa 0,0 l/m 10,2 km/h (2 Bft) S22.5 170 0 min 0 lux 0 W/m
16.07.2017 01:41 18,8 C 64 % 1020,7 hPa 0,0 l/m 11,1 km/h (2 Bft) S22.5 170 0 min 0 lux 0 W/m
16.07.2017 01:45 18,7 C 65 % 1020,7 hPa 0,0 l/m 8,1 km/h (2 Bft) S22.5 170 0 min 0 lux 0 W/m
16.07.2017 01:50 18,7 C 65 % 1020,7 hPa 0,0 l/m 11,4 km/h (2 Bft) S22.5 170 0 min 0 lux 0 W/m
16.07.2017 01:55 18,7 C 65 % 1020,7 hPa 0,0 l/m 11,0 km/h (2 Bft) S22.5 180 0 min 0 lux 0 W/m
16.07.2017 02:00 18,7 C 64 % 1020,7 hPa 0,0 l/m 11,7 km/h (2 Bft) S22.5 185 0 min 0 lux 0 W/m
16.07.2017 02:05 18,8 C 64 % 1020,7 hPa 0,0 l/m 15,3 km/h (3 Bft) S-SW22.5 200 0 min 0 lux 0 W/m
16.07.2017 02:10 18,8 C 65 % 1020,7 hPa 0,0 l/m 20,6 km/h (4 Bft) SW45 220 0 min 0 lux 0 W/m
16.07.2017 02:15 18,8 C 65 % 1020,7 hPa 0,0 l/m 19,0 km/h (3 Bft) SW45 225 0 min 0 lux 0 W/m
16.07.2017 02:21 18,8 C 65 % 1020,7 hPa 0,0 l/m 12,4 km/h (2 Bft) SW22.5 230 0 min 0 lux 0 W/m
16.07.2017 02:26 18,7 C 65 % 1020,7 hPa 0,0 l/m 18,5 km/h (3 Bft) SW22.5 230 0 min 0 lux 0 W/m
16.07.2017 02:30 18,7 C 66 % 1020,7 hPa 0,0 l/m 14,5 km/h (3 Bft) SW22.5 220 0 min 0 lux 0 W/m
16.07.2017 02:35 18,6 C 66 % 1020,7 hPa 0,0 l/m 15,5 km/h (3 Bft) SW45 220 0 min 0 lux 0 W/m
16.07.2017 02:40 18,6 C 66 % 1020,7 hPa 0,0 l/m 18,6 km/h (3 Bft) SW45 225 0 min 0 lux 0 W/m
16.07.2017 02:46 18,6 C 66 % 1020,7 hPa 0,0 l/m 16,6 km/h (3 Bft) SW45 225 0 min 0 lux 0 W/m
16.07.2017 02:50 18,6 C 66 % 1020,7 hPa 0,0 l/m 22,8 km/h (4 Bft) SW45 215 0 min 0 lux 0 W/m
16.07.2017 02:55 18,5 C 66 % 1020,7 hPa 0,0 l/m 21,1 km/h (4 Bft) SW22.5 225 0 min 0 lux 0 W/m
16.07.2017 03:00 18,5 C 67 % 1020,7 hPa 0,0 l/m 22,5 km/h (4 Bft) SW45 230 0 min 0 lux 0 W/m
16.07.2017 03:06 18,4 C 67 % 1020,7 hPa 0,0 l/m 16,9 km/h (3 Bft) W-SW22.5 250 0 min 0 lux 0 W/m
16.07.2017 03:10 18,4 C 67 % 1020,7 hPa 0,0 l/m 18,6 km/h (3 Bft) W-SW22.5 245 0 min 0 lux 0 W/m
16.07.2017 03:15 18,3 C 67 % 1020,7 hPa 0,0 l/m 25,2 km/h (4 Bft) W-SW45 255 0 min 0 lux 0 W/m
16.07.2017 03:20 18,3 C 67 % 1020,7 hPa 0,0 l/m 29,1 km/h (5 Bft) W45 280 0 min 0 lux 0 W/m
16.07.2017 03:26 18,2 C 66 % 1020,7 hPa 0,0 l/m 21,3 km/h (4 Bft) W-SW45 255 0 min 0 lux 0 W/m
16.07.2017 03:31 18,2 C 67 % 1020,7 hPa 0,0 l/m 23,8 km/h (4 Bft) W-SW22.5 255 0 min 0 lux 0 W/m
16.07.2017 03:35 18,0 C 67 % 1020,7 hPa 0,0 l/m 21,2 km/h (4 Bft) W22.5 260 0 min 0 lux 0 W/m
16.07.2017 03:40 17,9 C 68 % 1020,7 hPa 0,0 l/m 22,7 km/h (4 Bft) W22.5 275 0 min 0 lux 0 W/m
16.07.2017 03:45 17,8 C 68 % 1020,7 hPa 0,0 l/m 21,5 km/h (4 Bft) W45 270 0 min 0 lux 0 W/m
16.07.2017 03:50 17,8 C 68 % 1020,7 hPa 0,0 l/m 21,5 km/h (4 Bft) W45 270 0 min 0 lux 0 W/m
16.07.2017 03:56 17,7 C 69 % 1020,7 hPa 0,0 l/m 20,3 km/h (4 Bft) W22.5 260 0 min 0 lux 0 W/m
16.07.2017 04:00 17,7 C 69 % 1020,7 hPa 0,0 l/m 18,3 km/h (3 Bft) W-SW22.5 245 0 min 0 lux 0 W/m
16.07.2017 04:05 17,7 C 69 % 1020,7 hPa 0,0 l/m 17,8 km/h (3 Bft) W-SW45 240 0 min 0 lux 0 W/m
16.07.2017 04:11 17,6 C 70 % 1020,7 hPa 0,0 l/m 21,2 km/h (4 Bft) W-SW22.5 240 0 min 0 lux 0 W/m
16.07.2017 04:15 17,6 C 71 % 1020,7 hPa 0,0 l/m 20,0 km/h (4 Bft) W-SW22.5 240 0 min 0 lux 0 W/m
16.07.2017 04:20 17,5 C 71 % 1020,7 hPa 0,0 l/m 22,6 km/h (4 Bft) W-SW45 245 0 min 0 lux 0 W/m
16.07.2017 04:25 17,5 C 71 % 1020,7 hPa 0,0 l/m 17,3 km/h (3 Bft) W-SW22.5 240 0 min 0 lux 0 W/m
16.07.2017 04:30 17,4 C 71 % 1020,7 hPa 0,0 l/m 17,2 km/h (3 Bft) SW22.5 225 0 min 0 lux 0 W/m
16.07.2017 04:36 17,4 C 71 % 1020,7 hPa 0,0 l/m 16,5 km/h (3 Bft) SW45 230 0 min 0 lux 0 W/m
16.07.2017 04:40 17,4 C 71 % 1020,7 hPa 0,0 l/m 12,4 km/h (2 Bft) SW22.5 235 0 min 0 lux 0 W/m
16.07.2017 04:45 17,4 C 72 % 1020,7 hPa 0,0 l/m 14,3 km/h (3 Bft) SW22.5 225 0 min 0 lux 0 W/m
16.07.2017 04:50 17,4 C 72 % 1020,7 hPa 0,0 l/m 17,3 km/h (3 Bft) SW45 230 0 min 0 lux 0 W/m
16.07.2017 04:55 17,4 C 72 % 1020,7 hPa 0,0 l/m 15,0 km/h (3 Bft) SW22.5 225 0 min 0 lux 0 W/m
16.07.2017 05:01 17,4 C 72 % 1020,7 hPa 0,0 l/m 12,5 km/h (2 Bft) SW45 225 0 min 0 lux 0 W/m
16.07.2017 05:05 17,4 C 72 % 1020,7 hPa 0,0 l/m 14,1 km/h (3 Bft) SW22.5 220 0 min 0 lux 0 W/m
16.07.2017 05:10 17,4 C 73 % 1020,7 hPa 0,0 l/m 16,8 km/h (3 Bft) SW22.5 225 0 min 0 lux 0 W/m
16.07.2017 05:16 17,4 C 73 % 1020,7 hPa 0,0 l/m 16,8 km/h (3 Bft) SW45 220 0 min 0 lux 0 W/m
16.07.2017 05:21 17,2 C 73 % 1020,7 hPa 0,0 l/m 20,0 km/h (4 Bft) SW45 225 0 min 0 lux 0 W/m
16.07.2017 05:25 17,2 C 74 % 1020,7 hPa 0,0 l/m 17,1 km/h (3 Bft) SW45 225 0 min 0 lux 0 W/m
16.07.2017 05:30 17,1 C 75 % 1020,7 hPa 0,0 l/m 22,2 km/h (4 Bft) W-SW22.5 240 0 min 0 lux 0 W/m
16.07.2017 05:35 17,0 C 76 % 1020,7 hPa 0,0 l/m 21,4 km/h (4 Bft) SW22.5 225 0 min 0 lux 0 W/m
16.07.2017 05:41 16,9 C 76 % 1020,7 hPa 0,0 l/m 17,8 km/h (3 Bft) SW22.5 225 0 min 0 lux 0 W/m
16.07.2017 05:46 16,9 C 75 % 1020,7 hPa 0,0 l/m 14,8 km/h (3 Bft) S-SW45 205 0 min 0 lux 0 W/m
16.07.2017 05:50 16,9 C 75 % 1020,7 hPa 0,0 l/m 16,7 km/h (3 Bft) S-SW22.5 205 0 min 0 lux 0 W/m
16.07.2017 05:55 16,9 C 74 % 1020,7 hPa 0,0 l/m 11,5 km/h (2 Bft) S22.5 185 0 min 0 lux 0 W/m
16.07.2017 06:00 16,9 C 74 % 1020,7 hPa 0,0 l/m 6,6 km/h (2 Bft) S-SW22.5 205 0 min 0 lux 0 W/m
16.07.2017 06:05 16,9 C 75 % 1020,7 hPa 0,0 l/m 13,2 km/h (3 Bft) S22.5 185 0 min 0 lux 0 W/m
16.07.2017 06:10 17,0 C 75 % 1020,7 hPa 0,0 l/m 12,9 km/h (3 Bft) S-SW45 195 0 min 0 lux 0 W/m
16.07.2017 06:15 16,9 C 75 % 1020,7 hPa 0,0 l/m 16,3 km/h (3 Bft) S-SW22.5 195 0 min 0 lux 0 W/m
16.07.2017 06:20 17,0 C 75 % 1020,7 hPa 0,0 l/m 13,1 km/h (3 Bft) S-SW22.5 195 0 min 0 lux 0 W/m
16.07.2017 06:26 17,0 C 75 % 1020,7 hPa 0,0 l/m 10,5 km/h (2 Bft) S22.5 190 0 min 0 lux 0 W/m
16.07.2017 06:30 17,0 C 75 % 1020,7 hPa 0,0 l/m 12,8 km/h (3 Bft) S45 185 0 min 0 lux 0 W/m
16.07.2017 06:35 17,0 C 75 % 1020,7 hPa 0,0 l/m 9,6 km/h (2 Bft) S22.5 185 0 min 0 lux 0 W/m
16.07.2017 06:40 17,0 C 75 % 1020,7 hPa 0,0 l/m 8,2 km/h (2 Bft) S22.5 175 0 min 0 lux 0 W/m
16.07.2017 06:45 17,0 C 75 % 1020,7 hPa 0,0 l/m 10,6 km/h (2 Bft) S22.5 175 0 min 0 lux 0 W/m
16.07.2017 06:51 16,9 C 76 % 1020,7 hPa 0,0 l/m 11,4 km/h (2 Bft) S22.5 170 0 min 0 lux 0 W/m
16.07.2017 06:55 16,8 C 76 % 1020,7 hPa 0,0 l/m 11,9 km/h (2 Bft) S22.5 175 0 min 0 lux 0 W/m
16.07.2017 07:00 16,8 C 76 % 1020,7 hPa 0,0 l/m 11,5 km/h (2 Bft) S22.5 180 0 min 0 lux 0 W/m
16.07.2017 07:06 16,8 C 76 % 1020,7 hPa 0,0 l/m 11,0 km/h (2 Bft) S-SW22.5 195 0 min 0 lux 0 W/m
16.07.2017 07:10 16,8 C 76 % 1020,7 hPa 0,0 l/m 15,5 km/h (3 Bft) S-SW22.5 195 0 min 0 lux 0 W/m
16.07.2017 07:15 16,8 C 76 % 1020,7 hPa 0,0 l/m 11,8 km/h (2 Bft) S22.5 190 0 min 0 lux 0 W/m
16.07.2017 07:20 16,8 C 77 % 1020,7 hPa 0,0 l/m 17,5 km/h (3 Bft) SW22.5 215 0 min 0 lux 0 W/m
16.07.2017 07:25 16,8 C 77 % 1020,7 hPa 0,0 l/m 12,5 km/h (2 Bft) S-SW22.5 195 0 min 0 lux 0 W/m
16.07.2017 07:26 16,8 C 77 % 1020,7 hPa 0,0 l/m 12,5 km/h (2 Bft) S-SW22.5 195 0 min 0 lux 0 W/m
16.07.2017 07:30 16,7 C 77 % 1020,7 hPa 0,0 l/m 16,1 km/h (3 Bft) S-SW22.5 210 0 min 0 lux 0 W/m
16.07.2017 07:36 16,7 C 77 % 1020,7 hPa 0,0 l/m 16,5 km/h (3 Bft) S-SW22.5 205 0 min 2,61 klux 18 W/m
16.07.2017 07:41 16,8 C 77 % 1020,7 hPa 0,0 l/m 10,3 km/h (2 Bft) S-SW45 210 0 min 2,61 klux 18 W/m
16.07.2017 07:45 16,7 C 77 % 1020,7 hPa 0,0 l/m 14,3 km/h (3 Bft) S-SW22.5 205 0 min 2,61 klux 18 W/m
16.07.2017 07:50 16,8 C 77 % 1020,7 hPa 0,0 l/m 10,3 km/h (2 Bft) S-SW22.5 205 0 min 2,61 klux 18 W/m
16.07.2017 07:55 16,8 C 77 % 1020,7 hPa 0,0 l/m 11,7 km/h (2 Bft) S22.5 190 0 min 2,61 klux 18 W/m
16.07.2017 08:01 16,8 C 77 % 1020,7 hPa 0,0 l/m 12,7 km/h (3 Bft) S-SW22.5 200 0 min 2,61 klux 18 W/m
16.07.2017 08:05 16,8 C 77 % 1020,7 hPa 0,0 l/m 11,6 km/h (2 Bft) S22.5 190 0 min 2,61 klux 18 W/m
16.07.2017 08:10 16,8 C 77 % 1020,7 hPa 0,0 l/m 9,4 km/h (2 Bft) S22.5 185 0 min 2,61 klux 18 W/m
16.07.2017 08:16 17,0 C 77 % 1020,7 hPa 0,0 l/m 10,9 km/h (2 Bft) S22.5 185 0 min 2,61 klux 18 W/m
16.07.2017 08:21 17,0 C 77 % 1020,7 hPa 0,0 l/m 11,8 km/h (2 Bft) S22.5 185 0 min 2,61 klux 18 W/m
16.07.2017 08:25 17,0 C 77 % 1020,7 hPa 0,0 l/m 14,9 km/h (3 Bft) S22.5 185 0 min 6,16 klux 42 W/m
16.07.2017 08:30 17,0 C 77 % 1020,7 hPa 0,0 l/m 15,2 km/h (3 Bft) S22.5 185 0 min 6,16 klux 42 W/m
16.07.2017 08:35 17,1 C 77 % 1020,7 hPa 0,0 l/m 12,0 km/h (2 Bft) S22.5 185 0 min 6,16 klux 42 W/m
16.07.2017 08:41 17,1 C 77 % 1020,7 hPa 0,0 l/m 13,8 km/h (3 Bft) S22.5 170 0 min 6,16 klux 42 W/m
16.07.2017 08:46 17,2 C 77 % 1020,7 hPa 0,0 l/m 12,2 km/h (2 Bft) S22.5 185 0 min 6,16 klux 42 W/m
16.07.2017 08:50 17,4 C 77 % 1020,7 hPa 0,0 l/m 14,3 km/h (3 Bft) S22.5 175 0 min 6,16 klux 42 W/m
16.07.2017 08:55 17,5 C 77 % 1020,7 hPa 0,0 l/m 16,0 km/h (3 Bft) S22.5 175 0 min 6,16 klux 42 W/m
16.07.2017 09:00 17,6 C 77 % 1020,7 hPa 0,0 l/m 16,2 km/h (3 Bft) S22.5 180 0 min 6,16 klux 42 W/m
16.07.2017 09:05 17,8 C 77 % 1020,7 hPa 0,0 l/m 14,5 km/h (3 Bft) S22.5 180 0 min 6,16 klux 42 W/m
16.07.2017 09:10 18,0 C 77 % 1020,7 hPa 0,0 l/m 12,3 km/h (2 Bft) S22.5 170 0 min 6,16 klux 42 W/m
16.07.2017 09:15 18,0 C 77 % 1021,7 hPa 0,0 l/m 13,1 km/h (3 Bft) S22.5 175 0 min 6,16 klux 42 W/m
16.07.2017 09:21 18,0 C 76 % 1021,7 hPa 0,0 l/m 10,6 km/h (2 Bft) S22.5 175 0 min 6,16 klux 42 W/m
16.07.2017 09:26 18,1 C 76 % 1021,7 hPa 0,0 l/m 13,4 km/h (3 Bft) S22.5 180 0 min 6,16 klux 42 W/m
16.07.2017 09:30 18,1 C 75 % 1021,7 hPa 0,0 l/m 13,9 km/h (3 Bft) S45 190 0 min 8,31 klux 57 W/m
16.07.2017 09:35 18,0 C 75 % 1021,7 hPa 0,0 l/m 12,4 km/h (2 Bft) S-SW22.5 210 0 min 9,5 klux 65 W/m
16.07.2017 09:40 18,2 C 75 % 1021,7 hPa 0,0 l/m 14,5 km/h (3 Bft) SW22.5 215 0 min 8,14 klux 56 W/m
16.07.2017 09:46 18,2 C 75 % 1021,7 hPa 0,0 l/m 14,4 km/h (3 Bft) S-SW22.5 205 0 min 9,2 klux 63 W/m
16.07.2017 09:51 18,2 C 75 % 1021,7 hPa 0,0 l/m 12,2 km/h (2 Bft) SW45 215 0 min 9,2 klux 63 W/m
16.07.2017 09:55 18,3 C 75 % 1021,7 hPa 0,0 l/m 12,8 km/h (3 Bft) S-SW22.5 200 0 min 10,6 klux 73 W/m
16.07.2017 10:00 18,4 C 75 % 1021,7 hPa 0,0 l/m 15,6 km/h (3 Bft) S-SW22.5 205 0 min 10,6 klux 73 W/m
16.07.2017 10:06 18,3 C 75 % 1021,7 hPa 0,0 l/m 15,6 km/h (3 Bft) S-SW22.5 205 0 min 12,1 klux 83 W/m
16.07.2017 10:10 18,4 C 74 % 1021,7 hPa 0,0 l/m 11,0 km/h (2 Bft) S-SW22.5 195 0 min 15,1 klux 103 W/m
16.07.2017 10:15 18,6 C 74 % 1021,7 hPa 0,0 l/m 13,0 km/h (3 Bft) S22.5 180 0 min 17,7 klux 121 W/m
16.07.2017 10:20 18,7 C 73 % 1021,7 hPa 0,0 l/m 17,9 km/h (3 Bft) SW45 220 0 min 18,4 klux 126 W/m
16.07.2017 10:26 18,8 C 72 % 1021,7 hPa 0,0 l/m 18,0 km/h (3 Bft) SW45 225 0 min 16,2 klux 111 W/m
16.07.2017 10:31 19,0 C 72 % 1021,7 hPa 0,0 l/m 16,8 km/h (3 Bft) SW22.5 225 0 min 14,9 klux 102 W/m
16.07.2017 10:35 19,0 C 72 % 1020,7 hPa 0,0 l/m 16,3 km/h (3 Bft) SW45 220 0 min 19,1 klux 131 W/m
16.07.2017 10:40 19,1 C 72 % 1020,7 hPa 0,0 l/m 20,2 km/h (4 Bft) SW45 225 0 min 20,3 klux 139 W/m
16.07.2017 10:45 19,2 C 71 % 1020,7 hPa 0,0 l/m 17,9 km/h (3 Bft) S-SW45 195 0 min 24,3 klux 166 W/m
16.07.2017 10:51 19,3 C 71 % 1020,7 hPa 0,0 l/m 18,1 km/h (3 Bft) S-SW45 210 0 min 30,6 klux 209 W/m
16.07.2017 10:55 19,5 C 71 % 1020,7 hPa 0,0 l/m 17,8 km/h (3 Bft) S-SW45 210 0 min 30,6 klux 209 W/m
16.07.2017 11:00 19,8 C 71 % 1021,7 hPa 0,0 l/m 17,2 km/h (3 Bft) SW22.5 220 0 min 33,4 klux 228 W/m
16.07.2017 11:06 19,7 C 70 % 1021,7 hPa 0,0 l/m 11,8 km/h (2 Bft) S45 190 0 min 20,1 klux 137 W/m
16.07.2017 11:10 19,7 C 70 % 1020,7 hPa 0,0 l/m 19,9 km/h (4 Bft) S-SW45 200 0 min 18,5 klux 127 W/m
16.07.2017 11:15 19,8 C 70 % 1020,7 hPa 0,0 l/m 18,8 km/h (3 Bft) SW45 225 0 min 17,9 klux 122 W/m
16.07.2017 11:20 19,8 C 70 % 1021,7 hPa 0,0 l/m 14,9 km/h (3 Bft) SW45 215 0 min 22,9 klux 157 W/m
16.07.2017 11:25 19,9 C 70 % 1021,7 hPa 0,0 l/m 13,0 km/h (3 Bft) S-SW45 205 0 min 24,7 klux 169 W/m
16.07.2017 11:31 19,9 C 70 % 1021,7 hPa 0,0 l/m 19,1 km/h (3 Bft) SW22.5 230 0 min 21,5 klux 147 W/m
16.07.2017 11:35 19,9 C 70 % 1020,7 hPa 0,0 l/m 19,5 km/h (3 Bft) SW45 225 0 min 19,0 klux 130 W/m
16.07.2017 11:40 20,0 C 70 % 1020,7 hPa 0,0 l/m 15,9 km/h (3 Bft) SW45 230 0 min 19,0 klux 130 W/m
16.07.2017 11:45 20,0 C 70 % 1020,7 hPa 0,0 l/m 17,0 km/h (3 Bft) SW22.5 225 0 min 19,3 klux 132 W/m
16.07.2017 11:50 20,0 C 70 % 1021,7 hPa 0,0 l/m 18,3 km/h (3 Bft) SW45 230 0 min 17,5 klux 120 W/m
16.07.2017 11:56 20,0 C 70 % 1021,7 hPa 0,0 l/m 21,2 km/h (4 Bft) W-SW22.5 245 0 min 20,3 klux 139 W/m
16.07.2017 12:00 20,0 C 70 % 1021,7 hPa 0,0 l/m 18,6 km/h (3 Bft) SW22.5 230 0 min 20,3 klux 139 W/m
16.07.2017 12:06 20,0 C 71 % 1021,7 hPa 0,0 l/m 21,8 km/h (4 Bft) W-SW45 250 0 min 19,7 klux 135 W/m
16.07.2017 12:10 20,0 C 71 % 1021,7 hPa 0,0 l/m 21,4 km/h (4 Bft) W-SW45 240 0 min 22,0 klux 150 W/m
16.07.2017 12:15 20,0 C 71 % 1021,7 hPa 0,0 l/m 18,8 km/h (3 Bft) W-SW45 240 0 min 22,0 klux 150 W/m
16.07.2017 12:20 20,1 C 71 % 1021,7 hPa 0,0 l/m 24,5 km/h (4 Bft) SW45 230 0 min 21,1 klux 144 W/m
16.07.2017 12:25 20,1 C 71 % 1021,7 hPa 0,0 l/m 14,1 km/h (3 Bft) SW22.5 230 0 min 19,8 klux 135 W/m
16.07.2017 12:31 20,2 C 71 % 1021,7 hPa 0,0 l/m 19,4 km/h (3 Bft) SW22.5 225 0 min 22,5 klux 154 W/m
16.07.2017 12:35 20,2 C 71 % 1021,7 hPa 0,0 l/m 15,3 km/h (3 Bft) SW22.5 225 0 min 20,9 klux 143 W/m
16.07.2017 12:40 20,3 C 70 % 1021,7 hPa 0,0 l/m 20,0 km/h (4 Bft) SW22.5 215 0 min 21,6 klux 148 W/m
16.07.2017 12:45 20,4 C 70 % 1021,7 hPa 0,0 l/m 20,0 km/h (4 Bft) SW22.5 215 0 min 29,6 klux 202 W/m
16.07.2017 12:51 20,4 C 71 % 1021,7 hPa 0,0 l/m 21,6 km/h (4 Bft) SW45 230 0 min 27,2 klux 186 W/m
16.07.2017 12:56 20,5 C 71 % 1021,7 hPa 0,0 l/m 18,6 km/h (3 Bft) SW45 230 0 min 22,7 klux 155 W/m
16.07.2017 13:00 20,6 C 71 % 1021,7 hPa 0,0 l/m 19,6 km/h (3 Bft) SW22.5 215 0 min 45,9 klux 314 W/m
16.07.2017 13:06 20,8 C 71 % 1020,7 hPa 0,0 l/m 20,9 km/h (4 Bft) SW45 215 0 min 44,7 klux 306 W/m
16.07.2017 13:11 21,0 C 70 % 1020,7 hPa 0,0 l/m 18,8 km/h (3 Bft) SW45 225 0 min 38,6 klux 264 W/m
16.07.2017 13:15 21,2 C 70 % 1020,7 hPa 0,0 l/m 15,6 km/h (3 Bft) SW45 220 0 min 46,5 klux 318 W/m
16.07.2017 13:20 21,2 C 70 % 1020,7 hPa 0,0 l/m 14,8 km/h (3 Bft) SW45 230 0 min 31,0 klux 212 W/m
16.07.2017 13:25 21,2 C 70 % 1020,7 hPa 0,0 l/m 16,6 km/h (3 Bft) S-SW22.5 210 0 min 47,8 klux 327 W/m
16.07.2017 13:31 21,4 C 70 % 1020,7 hPa 0,0 l/m 17,1 km/h (3 Bft) S-SW45 210 0 min 44,0 klux 301 W/m
16.07.2017 13:35 21,7 C 70 % 1020,7 hPa 0,0 l/m 17,1 km/h (3 Bft) S-SW45 210 0 min 39,4 klux 269 W/m
16.07.2017 13:40 21,8 C 69 % 1020,7 hPa 0,0 l/m 16,0 km/h (3 Bft) SW45 215 0 min 49,0 klux 335 W/m
16.07.2017 13:45 22,0 C 69 % 1020,7 hPa 0,0 l/m 14,9 km/h (3 Bft) S45 185 0 min 47,1 klux 322 W/m
16.07.2017 13:50 22,0 C 69 % 1020,7 hPa 0,0 l/m 11,6 km/h (2 Bft) S22.5 175 0 min 38,5 klux 263 W/m
16.07.2017 13:56 22,1 C 69 % 1020,7 hPa 0,0 l/m 12,8 km/h (3 Bft) W-SW67.5 240 0 min 38,5 klux 263 W/m
16.07.2017 14:00 22,2 C 68 % 1020,7 hPa 0,0 l/m 16,3 km/h (3 Bft) SW22.5 215 0 min 34,4 klux 235 W/m
16.07.2017 14:05 22,2 C 69 % 1020,7 hPa 0,0 l/m 15,3 km/h (3 Bft) SW22.5 235 0 min 27,3 klux 187 W/m
16.07.2017 14:11 22,1 C 68 % 1020,7 hPa 0,0 l/m 20,6 km/h (4 Bft) SW22.5 225 0 min 27,8 klux 190 W/m
16.07.2017 14:15 22,2 C 68 % 1020,7 hPa 0,0 l/m 16,9 km/h (3 Bft) S-SW45 210 0 min 33,7 klux 231 W/m
16.07.2017 14:20 22,4 C 69 % 1020,7 hPa 0,0 l/m 14,7 km/h (3 Bft) SW45 220 0 min 33,7 klux 231 W/m
16.07.2017 14:25 22,3 C 69 % 1020,7 hPa 0,0 l/m 18,3 km/h (3 Bft) SW22.5 230 0 min 23,5 klux 161 W/m
16.07.2017 14:30 22,4 C 68 % 1020,7 hPa 0,0 l/m 16,5 km/h (3 Bft) SW22.5 235 0 min 35,9 klux 246 W/m
16.07.2017 14:36 22,8 C 67 % 1020,6 hPa 0,0 l/m 19,5 km/h (3 Bft) SW22.5 230 0 min 43,0 klux 294 W/m
16.07.2017 14:40 22,7 C 67 % 1020,6 hPa 0,0 l/m 19,4 km/h (3 Bft) SW45 220 0 min 44,2 klux 302 W/m
16.07.2017 14:45 23,2 C 66 % 1020,6 hPa 0,0 l/m 17,5 km/h (3 Bft) SW45 230 0 min 46,5 klux 318 W/m
16.07.2017 14:50 23,4 C 64 % 1020,6 hPa 0,0 l/m 25,6 km/h (4 Bft) SW45 235 0 min 46,5 klux 318 W/m
16.07.2017 14:55 23,4 C 64 % 1020,6 hPa 0,0 l/m 23,4 km/h (4 Bft) W-SW45 255 0 min 37,6 klux 257 W/m
16.07.2017 15:01 23,2 C 65 % 1020,6 hPa 0,0 l/m 21,2 km/h (4 Bft) W45 270 0 min 33,6 klux 230 W/m
16.07.2017 15:05 23,3 C 66 % 1020,6 hPa 0,0 l/m 16,0 km/h (3 Bft) W22.5 265 0 min 42,6 klux 291 W/m
16.07.2017 15:10 23,5 C 65 % 1020,6 hPa 0,0 l/m 18,5 km/h (3 Bft) W-SW22.5 245 0 min 42,7 klux 292 W/m
16.07.2017 15:16 23,6 C 64 % 1020,6 hPa 0,0 l/m 21,6 km/h (4 Bft) SW45 225 0 min 39,7 klux 272 W/m
16.07.2017 15:20 23,6 C 64 % 1020,6 hPa 0,0 l/m 22,3 km/h (4 Bft) W-SW67.5 245 0 min 39,7 klux 272 W/m
16.07.2017 15:25 23,2 C 64 % 1020,6 hPa 0,0 l/m 23,8 km/h (4 Bft) W-SW45 240 0 min 18,8 klux 129 W/m
16.07.2017 15:30 23,2 C 65 % 1020,6 hPa 0,0 l/m 23,2 km/h (4 Bft) W22.5 270 0 min 20,9 klux 143 W/m
16.07.2017 15:35 23,2 C 65 % 1020,6 hPa 0,0 l/m 23,4 km/h (4 Bft) W-SW22.5 250 0 min 22,2 klux 152 W/m
16.07.2017 15:41 23,4 C 65 % 1020,6 hPa 0,0 l/m 20,2 km/h (4 Bft) W22.5 265 0 min 26,3 klux 180 W/m
16.07.2017 15:45 23,3 C 65 % 1020,6 hPa 0,0 l/m 21,5 km/h (4 Bft) W45 260 0 min 21,9 klux 150 W/m
16.07.2017 15:50 23,1 C 66 % 1020,6 hPa 0,0 l/m 23,0 km/h (4 Bft) W-SW45 240 0 min 19,1 klux 131 W/m
16.07.2017 15:55 23,2 C 66 % 1020,6 hPa 0,0 l/m 21,8 km/h (4 Bft) W22.5 265 0 min 26,4 klux 181 W/m
16.07.2017 16:01 23,2 C 65 % 1020,6 hPa 0,0 l/m 24,6 km/h (4 Bft) W-SW45 240 0 min 20,1 klux 137 W/m
16.07.2017 16:05 23,1 C 65 % 1020,6 hPa 0,0 l/m 19,0 km/h (3 Bft) W-NW22.5 285 0 min 17,5 klux 120 W/m
16.07.2017 16:10 23,0 C 66 % 1020,6 hPa 0,0 l/m 23,5 km/h (4 Bft) W-NW22.5 290 0 min 19,2 klux 131 W/m
16.07.2017 16:16 22,8 C 66 % 1020,6 hPa 0,0 l/m 21,3 km/h (4 Bft) W-NW22.5 290 0 min 19,2 klux 131 W/m
16.07.2017 16:21 22,7 C 66 % 1020,6 hPa 0,0 l/m 29,9 km/h (5 Bft) W22.5 280 0 min 14,6 klux 100 W/m
16.07.2017 16:25 22,6 C 67 % 1020,6 hPa 0,0 l/m 26,7 km/h (4 Bft) W-NW45 285 0 min 15,7 klux 107 W/m
16.07.2017 16:30 22,6 C 67 % 1020,6 hPa 0,0 l/m 24,1 km/h (4 Bft) W45 260 0 min 13,4 klux 92 W/m
16.07.2017 16:35 22,5 C 68 % 1020,6 hPa 0,0 l/m 24,1 km/h (4 Bft) W-NW22.5 285 0 min 15,7 klux 107 W/m
16.07.2017 16:41 22,4 C 68 % 1020,7 hPa 0,0 l/m 27,5 km/h (5 Bft) W-NW22.5 285 0 min 15,7 klux 107 W/m
16.07.2017 16:46 22,5 C 68 % 1020,6 hPa 0,0 l/m 24,0 km/h (4 Bft) W22.5 265 0 min 17,2 klux 118 W/m
16.07.2017 16:50 22,4 C 68 % 1020,7 hPa 0,0 l/m 26,3 km/h (4 Bft) W45 260 0 min 16,7 klux 114 W/m
16.07.2017 16:55 22,4 C 68 % 1020,7 hPa 0,0 l/m 23,4 km/h (4 Bft) W-SW45 245 0 min 14,1 klux 96 W/m
16.07.2017 17:00 22,2 C 68 % 1020,7 hPa 0,0 l/m 31,1 km/h (5 Bft) W22.5 280 0 min 11,3 klux 77 W/m
16.07.2017 17:05 22,0 C 69 % 1020,7 hPa 0,0 l/m 28,9 km/h (5 Bft) W-NW22.5 285 0 min 9,5 klux 65 W/m
16.07.2017 17:10 22,0 C 69 % 1020,7 hPa 0,0 l/m 28,9 km/h (5 Bft) W-NW22.5 285 0 min 9,7 klux 67 W/m
16.07.2017 17:15 22,0 C 70 % 1020,7 hPa 0,0 l/m 25,8 km/h (4 Bft) W22.5 275 0 min 13,4 klux 92 W/m
16.07.2017 17:21 22,1 C 69 % 1020,7 hPa 0,0 l/m 27,1 km/h (5 Bft) W45 270 0 min 19,7 klux 135 W/m
16.07.2017 17:25 22,2 C 69 % 1020,7 hPa 0,0 l/m 21,8 km/h (4 Bft) W22.5 280 0 min 21,6 klux 148 W/m
16.07.2017 17:30 22,4 C 69 % 1020,7 hPa 0,0 l/m 26,8 km/h (4 Bft) W22.5 265 0 min 24,3 klux 166 W/m
16.07.2017 17:35 22,5 C 69 % 1020,6 hPa 0,0 l/m 24,5 km/h (4 Bft) W22.5 280 0 min 20,7 klux 142 W/m
16.07.2017 17:40 22,5 C 69 % 1020,6 hPa 0,0 l/m 23,6 km/h (4 Bft) W22.5 270 0 min 22,1 klux 151 W/m
16.07.2017 17:46 22,6 C 68 % 1020,6 hPa 0,0 l/m 22,8 km/h (4 Bft) W22.5 265 0 min 25,6 klux 175 W/m
16.07.2017 17:50 22,6 C 68 % 1020,6 hPa 0,0 l/m 20,6 km/h (4 Bft) W45 275 0 min 36,8 klux 252 W/m
16.07.2017 17:55 23,0 C 67 % 1020,6 hPa 0,0 l/m 22,1 km/h (4 Bft) W22.5 280 0 min 29,4 klux 201 W/m
16.07.2017 18:00 23,0 C 67 % 1020,6 hPa 0,0 l/m 21,0 km/h (4 Bft) W-SW45 245 0 min 29,1 klux 199 W/m
16.07.2017 18:05 23,3 C 67 % 1020,6 hPa 0,0 l/m 19,1 km/h (3 Bft) W-SW22.5 255 0 min 29,6 klux 202 W/m
16.07.2017 18:10 23,4 C 66 % 1020,6 hPa 0,0 l/m 23,7 km/h (4 Bft) W-NW22.5 300 0 min 28,8 klux 197 W/m
16.07.2017 18:15 23,2 C 66 % 1020,6 hPa 0,0 l/m 25,5 km/h (4 Bft) W-NW22.5 290 0 min 38,8 klux 265 W/m
16.07.2017 18:21 23,5 C 65 % 1020,6 hPa 0,0 l/m 26,1 km/h (4 Bft) W22.5 275 6 min 44,3 klux 303 W/m
16.07.2017 18:26 23,4 C 66 % 1020,6 hPa 0,0 l/m 26,2 km/h (4 Bft) W22.5 275 0 min 21,7 klux 148 W/m
16.07.2017 18:30 23,3 C 66 % 1020,6 hPa 0,0 l/m 27,0 km/h (5 Bft) W45 260 0 min 26,6 klux 182 W/m
16.07.2017 18:35 23,6 C 65 % 1019,6 hPa 0,0 l/m 23,5 km/h (4 Bft) W22.5 265 0 min 35,2 klux 241 W/m
16.07.2017 18:40 23,3 C 65 % 1019,6 hPa 0,0 l/m 20,2 km/h (4 Bft) W-NW22.5 300 5 min 37,4 klux 256 W/m
16.07.2017 18:46 23,0 C 66 % 1019,6 hPa 0,0 l/m 19,7 km/h (3 Bft) W-NW22.5 295 0 min 20,2 klux 138 W/m
16.07.2017 18:50 22,8 C 66 % 1020,6 hPa 0,0 l/m 19,5 km/h (3 Bft) W-NW45 300 0 min 16,8 klux 115 W/m
16.07.2017 18:55 23,0 C 67 % 1019,6 hPa 0,0 l/m 15,6 km/h (3 Bft) W-NW45 285 0 min 16,8 klux 115 W/m
16.07.2017 19:00 22,9 C 67 % 1019,6 hPa 0,0 l/m 18,7 km/h (3 Bft) W45 270 0 min 18,8 klux 129 W/m
16.07.2017 19:05 22,8 C 68 % 1019,6 hPa 0,0 l/m 24,7 km/h (4 Bft) W22.5 280 0 min 16,9 klux 116 W/m
16.07.2017 19:10 22,7 C 68 % 1019,6 hPa 0,0 l/m 20,1 km/h (4 Bft) W22.5 270 0 min 14,2 klux 97 W/m
16.07.2017 19:15 22,6 C 68 % 1019,6 hPa 0,0 l/m 22,8 km/h (4 Bft) W22.5 270 0 min 13,9 klux 95 W/m
16.07.2017 19:20 22,6 C 68 % 1019,6 hPa 0,0 l/m 20,2 km/h (4 Bft) W22.5 260 0 min 11,5 klux 79 W/m
16.07.2017 19:26 22,5 C 68 % 1019,6 hPa 0,0 l/m 16,0 km/h (3 Bft) W22.5 260 0 min 10,2 klux 70 W/m
16.07.2017 19:30 22,5 C 69 % 1019,6 hPa 0,0 l/m 18,8 km/h (3 Bft) W67.5 260 0 min 9,0 klux 62 W/m
16.07.2017 19:35 22,4 C 69 % 1019,6 hPa 0,0 l/m 21,5 km/h (4 Bft) W45 270 0 min 7,07 klux 48 W/m
16.07.2017 19:40 22,4 C 69 % 1019,6 hPa 0,0 l/m 14,3 km/h (3 Bft) W-NW22.5 285 0 min 7,18 klux 49 W/m
16.07.2017 19:46 22,3 C 69 % 1019,6 hPa 0,0 l/m 17,8 km/h (3 Bft) W-SW22.5 255 0 min 7,53 klux 52 W/m
16.07.2017 19:51 22,1 C 69 % 1019,7 hPa 0,0 l/m 13,9 km/h (3 Bft) W22.5 265 0 min 6,13 klux 42 W/m
16.07.2017 19:56 22,1 C 69 % 1019,7 hPa 0,0 l/m 17,6 km/h (3 Bft) W-NW45 290 0 min 5,90 klux 40 W/m
16.07.2017 20:01 22,1 C 69 % 1019,7 hPa 0,0 l/m 17,1 km/h (3 Bft) W45 280 0 min 6,43 klux 44 W/m
16.07.2017 20:05 22,1 C 69 % 1019,7 hPa 0,0 l/m 15,8 km/h (3 Bft) W22.5 280 0 min 5,62 klux 38 W/m
16.07.2017 20:11 22,0 C 70 % 1019,7 hPa 0,0 l/m 17,3 km/h (3 Bft) W22.5 280 0 min 5,30 klux 36 W/m
16.07.2017 20:16 22,0 C 70 % 1019,7 hPa 0,0 l/m 17,8 km/h (3 Bft) W-NW22.5 285 0 min 5,22 klux 36 W/m
16.07.2017 20:20 22,0 C 70 % 1019,7 hPa 0,0 l/m 16,3 km/h (3 Bft) W22.5 275 0 min 4,48 klux 31 W/m
16.07.2017 20:25 22,0 C 71 % 1019,7 hPa 0,0 l/m 16,9 km/h (3 Bft) W22.5 275 0 min 5,46 klux 37 W/m
16.07.2017 20:30 21,9 C 70 % 1019,7 hPa 0,0 l/m 23,1 km/h (4 Bft) W22.5 265 0 min 4,25 klux 29 W/m
16.07.2017 20:36 21,8 C 70 % 1019,7 hPa 0,0 l/m 19,8 km/h (3 Bft) W-NW22.5 285 0 min 3,93 klux 27 W/m
16.07.2017 20:41 21,8 C 70 % 1019,7 hPa 0,0 l/m 18,3 km/h (3 Bft) W22.5 265 0 min 3,99 klux 27 W/m
16.07.2017 20:45 21,8 C 70 % 1019,7 hPa 0,0 l/m 15,1 km/h (3 Bft) W-NW22.5 285 0 min 4,05 klux 28 W/m
16.07.2017 20:50 21,8 C 70 % 1019,7 hPa 0,0 l/m 20,6 km/h (4 Bft) W-NW22.5 285 0 min 3,87 klux 26 W/m
16.07.2017 20:55 21,7 C 71 % 1020,7 hPa 0,0 l/m 17,6 km/h (3 Bft) W22.5 280 0 min 2,82 klux 19 W/m
16.07.2017 21:01 21,6 C 71 % 1020,7 hPa 0,0 l/m 19,1 km/h (3 Bft) W22.5 275 0 min 2,18 klux 15 W/m
16.07.2017 21:05 21,6 C 71 % 1020,7 hPa 0,0 l/m 15,5 km/h (3 Bft) W-NW22.5 285 0 min 1,77 klux 12 W/m
16.07.2017 21:10 21,4 C 71 % 1019,7 hPa 0,0 l/m 15,5 km/h (3 Bft) W-NW22.5 285 0 min 1,31 klux 9 W/m
16.07.2017 21:16 21,4 C 72 % 1019,7 hPa 0,0 l/m 18,6 km/h (3 Bft) W-NW22.5 285 0 min 1,00 klux 7 W/m
16.07.2017 21:20 21,4 C 72 % 1019,7 hPa 0,0 l/m 18,5 km/h (3 Bft) W22.5 270 0 min 657 lux 4 W/m
16.07.2017 21:25 21,2 C 72 % 1020,7 hPa 0,0 l/m 10,4 km/h (2 Bft) W-NW22.5 290 0 min 556 lux 4 W/m
16.07.2017 21:30 21,2 C 72 % 1020,7 hPa 0,0 l/m 9,1 km/h (2 Bft) W-NW22.5 295 0 min 506 lux 3 W/m
16.07.2017 21:36 21,1 C 73 % 1020,7 hPa 0,0 l/m 8,5 km/h (2 Bft) W-NW22.5 295 0 min 380 lux 0 W/m
16.07.2017 21:41 21,0 C 73 % 1020,7 hPa 0,0 l/m 9,2 km/h (2 Bft) W 270 0 min 309 lux 0 W/m
16.07.2017 21:45 21,0 C 73 % 1020,7 hPa 0,0 l/m 6,5 km/h (2 Bft) W-NW 285 0 min 250 lux 0 W/m
16.07.2017 21:50 21,0 C 73 % 1020,7 hPa 0,0 l/m 6,3 km/h (2 Bft) W-NW 290 0 min 189 lux 0 W/m
16.07.2017 21:55 20,8 C 73 % 1020,7 hPa 0,0 l/m 10,5 km/h (2 Bft) W-NW 285 0 min 133 lux 0 W/m
16.07.2017 22:01 20,8 C 74 % 1020,7 hPa 0,0 l/m 8,7 km/h (2 Bft) W-NW22.5 285 0 min 66 lux 0 W/m
16.07.2017 22:05 20,8 C 74 % 1020,7 hPa 0,0 l/m 8,9 km/h (2 Bft) W 270 0 min 39 lux 0 W/m
16.07.2017 22:10 20,6 C 74 % 1020,7 hPa 0,0 l/m 8,7 km/h (2 Bft) W 270 0 min 16 lux 0 W/m
16.07.2017 22:16 20,6 C 74 % 1020,7 hPa 0,0 l/m 8,7 km/h (2 Bft) W 265 0 min 6 lux 0 W/m
16.07.2017 22:21 20,6 C 74 % 1020,7 hPa 0,0 l/m 5,7 km/h (2 Bft) W 270 0 min 1 lux 0 W/m
16.07.2017 22:25 20,6 C 75 % 1020,7 hPa 0,0 l/m 6,6 km/h (2 Bft) W 270 0 min 0 lux 0 W/m
16.07.2017 22:30 20,5 C 75 % 1020,7 hPa 0,0 l/m 3,9 km/h (1 Bft) W 270 0 min 0 lux 0 W/m
16.07.2017 22:35 20,6 C 75 % 1020,7 hPa 0,0 l/m 3,9 km/h (1 Bft) W 270 0 min 0 lux 0 W/m
16.07.2017 22:41 20,5 C 75 % 1020,7 hPa 0,0 l/m 0,0 km/h (0 Bft) W 270 0 min 0 lux 0 W/m
16.07.2017 22:45 20,5 C 75 % 1020,7 hPa 0,0 l/m 0,0 km/h (0 Bft) W 270 0 min 0 lux 0 W/m
16.07.2017 22:50 20,4 C 75 % 1020,7 hPa 0,0 l/m 0,0 km/h (0 Bft) W 270 0 min 0 lux 0 W/m
16.07.2017 22:55 20,4 C 75 % 1020,7 hPa 0,0 l/m 0,0 km/h (0 Bft) W 270 0 min 0 lux 0 W/m
16.07.2017 23:00 20,4 C 75 % 1020,7 hPa 0,0 l/m 0,0 km/h (0 Bft) W 270 0 min 0 lux 0 W/m
16.07.2017 23:05 20,3 C 75 % 1020,7 hPa 0,0 l/m 0,0 km/h (0 Bft) W 270 0 min 0 lux 0 W/m
16.07.2017 23:10 20,3 C 75 % 1020,7 hPa 0,0 l/m 0,0 km/h (0 Bft) W 270 0 min 0 lux 0 W/m
16.07.2017 23:15 20,3 C 75 % 1020,7 hPa 0,0 l/m 6,5 km/h (2 Bft) SW 235 0 min 0 lux 0 W/m
16.07.2017 23:21 20,2 C 76 % 1020,7 hPa 0,0 l/m 6,8 km/h (2 Bft) SW 235 0 min 0 lux 0 W/m
16.07.2017 23:25 20,1 C 76 % 1020,7 hPa 0,0 l/m 6,1 km/h (2 Bft) W-SW 240 0 min 0 lux 0 W/m
16.07.2017 23:30 20,0 C 76 % 1020,7 hPa 0,0 l/m 5,8 km/h (2 Bft) W-SW 240 0 min 0 lux 0 W/m
16.07.2017 23:35 20,0 C 76 % 1020,7 hPa 0,0 l/m 5,2 km/h (1 Bft) W-SW 240 0 min 0 lux 0 W/m
16.07.2017 23:40 20,0 C 77 % 1020,7 hPa 0,0 l/m 6,7 km/h (2 Bft) W 260 0 min 0 lux 0 W/m
16.07.2017 23:46 20,0 C 77 % 1020,7 hPa 0,0 l/m 6,7 km/h (2 Bft) W 260 0 min 0 lux 0 W/m
16.07.2017 23:50 19,9 C 77 % 1020,7 hPa 0,0 l/m 4,6 km/h (1 Bft) W 260 0 min 0 lux 0 W/m
16.07.2017 23:55 19,9 C 77 % 1020,7 hPa 0,0 l/m 7,3 km/h (2 Bft) W 260 0 min 0 lux 0 W/m
_ Min-Zeit 07:30 00:00 18:35 - 22:41 - - - - -
Minimum _ 16,7 C 64 % 1019,6 hPa - 0,0 km/h (0 Bft) - - - - -
_ Max-Zeit 15:16 07:20 09:15 00:00 17:00 - - 18:21 13:40 13:40
Maximum _ 23,6 C 77 % 1021,7 hPa 0,0 l/m 31,1 km/h
W (5 Bft)
- - 6 min 49,0 klux 335 W/m
Durchschnitt _ 19,9 C 70 % 1020,7 hPa #0,0 l/m 16,0 km/h (3 Bft) SW - #11 min. 11,1 klux 130 W/m